Portada
METAR-TAF:

METAR-TAF

Aeroports :

Qeshm, Iran

latitud: 26-45-18N, longitud: 055-54-08E, altitud: 12 m

Observació

L'informe es va fer fa 31 minuts, a les 08:00 UTC
Vent 16 kt del Sud-Est
Temperatura 37°C
Humitat 64%
Pressió 996 hPa
Visibilitat: 6000 m

METAR: OIKQ 190800Z 13016KT 6000 NSC 37/29 Q0996 NOSIG

Hora: 13:01 (08:31 UTC)


TAF: manca

Observacions i pronòstics meteorològics de més de 4000 aeroports (METAR i TAF).

Les estacions disponibles són els punts grocs i vermells al mapa.

Posi el ratolí al punt desitjat per veure el nom de l'estació.

Feu clic per veure les observacions i els pronòstics meteorològics.

Per canviar el mapa: feu clic els botons verds amb una creu de color negre per apropar; al botó verd amb un guió per allunyar la imatge; o en les fletxes verdes per a mapes adjacents.


METAR-TAF: